Notices

What's New in latest Release from April 7th, 2021:

- Updated Glossary, including Speed of Maximum Gust, and Total Hourly Precipitation

- Updated national and regional climate services offices contacts and prices information

- Addition of station inventory lists for 1981-2010, 1971-2000, and 1961-1990 Normals.

If you haven't already, please take our survey and provide feedback about our website: https://eccc.sondage-survey.ca/f/LanguageSelection.aspx?s=442ca660-fcf1-47c0-95a9-59707d6fd709

Hourly Data Report for June 10, 2006

TORONTO CITY
ONTARIO

43°40'00.000" N
79°24'00.000" W
112.50 m
6158355
71508
XTO

Download Data

Hourly Data (June 2006)
Hourly Data Report for June 10, 2006
TIME
LST
Temp Definition
°C
Dew Point Definition
°C
Rel Hum Definition
%
Precip. Amount Definition
mm

Wind Dir Definition
10's deg

Wind Spd Definition
km/h
Visibility Definition
km
Stn Press Definition
kPa
Hmdx Definition


Wind Chill Definition


Weather Definition


00:00 11.9 5.8 66   LegendMM LegendMM   99.72     LegendNANA
01:00 11.4 5.6 67   LegendMM LegendMM   99.70     LegendNANA
02:00 11.0 5.7 70   LegendMM LegendMM   99.68     LegendNANA
03:00 10.6 5.2 69   LegendMM LegendMM   99.64     LegendNANA
04:00 10.0 2.8 61   LegendMM LegendMM   99.65     LegendNANA
05:00 9.5 2.4 61   LegendMM LegendMM   99.70     LegendNANA
06:00 9.6 2.7 62   LegendMM LegendMM   99.70     LegendNANA
07:00 10.2 2.2 58   LegendMM LegendMM   99.72     LegendNANA
08:00 11.7 3.3 56   LegendMM LegendMM   99.81     LegendNANA
09:00 12.7 2.2 49   LegendMM LegendMM   99.74     LegendNANA
10:00 14.4 3.6 48   LegendMM LegendMM   99.70     LegendNANA
11:00 14.3 3.1 47   LegendMM LegendMM   99.74     LegendNANA
12:00 15.4 3.8 46   LegendMM LegendMM   99.71     LegendNANA
13:00 15.3 3.4 45   LegendMM LegendMM   99.70     LegendNANA
14:00 14.8 1.8 41   LegendMM LegendMM   99.71     LegendNANA
15:00 14.5 2.6 45   LegendMM LegendMM   99.74     LegendNANA
16:00 14.5 2.4 44   LegendMM LegendMM   99.71     LegendNANA
17:00 14.2 3.0 47   LegendMM LegendMM   99.73     LegendNANA
18:00 13.5 3.4 50   LegendMM LegendMM   99.73     LegendNANA
19:00 13.1 3.4 52   LegendMM LegendMM   99.76     LegendNANA
20:00 12.4 3.6 55   LegendMM LegendMM   99.77     LegendNANA
21:00 12.0 3.8 57   LegendMM LegendMM   99.80     LegendNANA
22:00 11.7 3.9 59   LegendMM LegendMM   99.79     LegendNANA
23:00 11.0 4.4 64   LegendMM LegendMM   99.80     LegendNANA

Notes on Data Quality.

Legend

  • E = Estimated
  • M = Missing
  • NA = Not Available*
  • [empty] = Indicates an unobserved value
Date modified: